sat.trackr.live / text

‹ back to catalog

STARLINK-5946

NORAD 55990 · 2023-042E

PAYLOAD ACTIVE UNKNOWN

§ Identity

Operator
Country
US
Launch date
2023-03-24
Launch site
AFETR
Launch vehicle
Mass (kg)
RCS (m²)

Purposes: comms

External: N2YO · Heavens-Above · Gunter

§ Orbital elements

Epoch: 2026-05-24T22:39:17.305056Z

Period
94.27 min
Inclination
43.0045°
Eccentricity
0.0001097
Mean motion
15.27573776 rev/d
Perigee alt
482.3 km
Apogee alt
483.8 km
Semi-major
6,861.2 km
B*
3.0256e-6
RAAN
348.7900°
Arg perigee
272.0090°
Mean anomaly
88.0636°
Rev number
17,453

§ Raw data

STARLINK-59461 55990U 23042E   26144.94395029 -.00000179  00000+0  30256-5 0  99952 55990  43.0045 348.7900 0001097 272.0090  88.0636 15.27573776174535

JSON: /api/v1/satellites/55990 · /tle

For live sub-satellite position, see the globe view (requires WebGL).

§ Visibility from observer

Set your observer location to see the next 7 days of passes ≥ 10°. The values pass through the URL so the page stays shareable.

No JS? Fill the form by hand. The geolocation button needs JavaScript.